OBJECT G, 60209

Orbit data source: Space-Track

You're viewing an uncataloged RSO

Recently launched and/or uncataloged RSOs may have evolving metadata. Metadata may include the following, but is not limited to: Owner, Manufacturer, Bus, Motor, and Mission.

OBJECT G, 60209 is an American satellite in SSO that was launched on Thu, 04 Jul 2024 UTC via an FIREFLY ALPHA launch vehicle from the Air Force Western Test Range (AFWTR). Unknown objects in Earth's orbit typically refer to objects detected orbiting the Earth but have not yet been identified or cataloged. These objects could be anything from previously untracked satellites, spent rocket stages, debris from satellite collisions, or even natural meteoroids temporarily captured by Earth's gravity.

Loading next visibility...
Identifier
60209, 2024-125G
Orbit
SSO
Country
Flag of USUS
Related business
Flag of USUniversity of Maine (US)
Manufacturer
UME
Mission
Operational Amateur Science
Bus & Motor
CUBESAT 3U, Unknown motor
Mass
3 kg wet, 3 kg dry
Launch date (UTC)
2024-07-04 (2 years ago)
Launch vehicle
FIREFLY ALPHA
Launch site
Air Force Western Test Range (AFWTR)
Object type
Unknown
Shape & HBR
Box, 0.2 m
Radar Cross Section
0.035 m², Medium (>0.1 m² and < 1m²)

Expand to show TLE details & history
Last TLE update: 9 hours ago

TLE from 9 hours ago
0 OBJECT G
1 60209U 24125G   26255.05914372  .00091673  00000-0  61626-3 0  9992
2 60209  97.2114 115.1501 0005626 233.4681 126.6066 15.74893425123183
Epoch: 2026-09-12T01:25Z
TLE epoch observation values (Epoch: 2026-09-12T01:25:10.017Z)
Latitude
-0.00009°
Longitude
102.78479°
Altitude
350.362 km
Speed
7.697 km/s
True Right ascension
07h 40m 36s
True Declination
0° 00' 00"
Sunlit
Object was in daylight at epoch
Visualization orbit readout
Latitude
Unknown
Longitude
Unknown
Altitude
Unknown
Speed
Unknown
Apparent Right ascension
Unknown
Apparent Declination
Unknown
Sunlit
N/A
Visualization observer readout
Local Sidereal Time
03:03:56
Azimuth
Unknown
Elevation
Unknown
Doppler factor
Unknown
Orbital elements
Apogee altitude
345.6 km
Perigee altitude
338.038 km
Semi-major axis
6,719.956 km
Eccentricity
0.00056
Inclination
97.2114°
RAAN
115.1501°
Arg. of periapsis
233.4681°
True anomaly
126.65833°
Mean anomaly
126.6066°
Eccentric anomaly
126.63247°
Mean motion
3.93998 °/min
Orbital period
91.37 mins
BSTAR
0.00061626
Loading maneuver chart data...
Computing Atmospheric mass density...
Loading historical data...
Loading historical data...
Loading historical data...
Loading historical data...
Loading historical data...
Loading historical data...
Loading historical data...

Documentation

Showing up to 5 results
|